Time,TemperatureF,DewpointF,PressureIn,WindDirection,WindDirectionDegrees,WindSpeedMPH,WindSpeedGustMPH,Humidity,HourlyPrecipIn,Conditions,Clouds,dailyrainin,SoftwareType,DateUTC
2013-11-07 00:03:00,63.7,16.6,30.20,ESE,113,6.0,10.0,16,0.00,,,0.00,Wunderground v.1.15,2013-11-07 07:03:00,
2013-11-07 00:08:00,63.7,16.6,30.20,ESE,102,6.0,10.0,16,0.00,,,0.00,Wunderground v.1.15,2013-11-07 07:08:00,
2013-11-07 00:14:00,63.8,15.2,30.20,ESE,117,6.0,9.0,15,0.00,,,0.00,Wunderground v.1.15,2013-11-07 07:14:00,
2013-11-07 00:19:00,63.8,15.2,30.20,ESE,114,5.0,9.0,15,0.00,,,0.00,Wunderground v.1.15,2013-11-07 07:19:00,
2013-11-07 00:25:00,63.6,16.5,30.20,ESE,112,5.0,7.0,16,0.00,,,0.00,Wunderground v.1.15,2013-11-07 07:25:00,
2013-11-07 00:30:00,63.2,17.6,30.20,South,191,4.0,4.0,17,0.00,,,0.00,Wunderground v.1.15,2013-11-07 07:30:00,
2013-11-07 00:35:00,62.6,18.4,30.20,South,181,3.0,4.0,18,0.00,,,0.00,Wunderground v.1.15,2013-11-07 07:35:00,
2013-11-07 00:41:00,61.6,20.1,30.20,SSW,199,2.0,4.0,20,0.00,,,0.00,Wunderground v.1.15,2013-11-07 07:41:00,
2013-11-07 00:47:00,60.7,19.3,30.20,SSW,199,2.0,4.0,20,0.00,,,0.00,Wunderground v.1.15,2013-11-07 07:47:00,
2013-11-07 00:53:00,60.2,18.9,30.20,SSW,194,2.0,3.0,20,0.00,,,0.00,Wunderground v.1.15,2013-11-07 07:53:00,
2013-11-07 00:59:00,59.7,19.6,30.20,South,183,2.0,3.0,21,0.00,,,0.00,Wunderground v.1.15,2013-11-07 07:59:00,
2013-11-07 01:04:00,59.3,19.3,30.20,SSW,196,3.0,6.0,21,0.00,,,0.00,Wunderground v.1.15,2013-11-07 08:04:00,
2013-11-07 01:10:00,58.8,20.0,30.20,SSW,199,4.0,4.0,22,0.00,,,0.00,Wunderground v.1.15,2013-11-07 08:10:00,
2013-11-07 01:16:00,58.6,18.7,30.19,SSW,206,4.0,8.0,21,0.00,,,0.00,Wunderground v.1.15,2013-11-07 08:16:00,
2013-11-07 01:22:00,58.6,18.7,30.19,SSW,199,5.0,5.0,21,0.00,,,0.00,Wunderground v.1.15,2013-11-07 08:22:00,
2013-11-07 01:27:00,58.7,17.7,30.19,SSW,192,3.0,5.0,20,0.00,,,0.00,Wunderground v.1.15,2013-11-07 08:27:00,
2013-11-07 01:33:00,58.9,16.7,30.19,SSE,152,2.0,5.0,19,0.00,,,0.00,Wunderground v.1.15,2013-11-07 08:33:00,
2013-11-07 01:38:00,59.1,16.8,30.19,SSW,198,3.0,5.0,19,0.00,,,0.00,Wunderground v.1.15,2013-11-07 08:38:00,
2013-11-07 01:43:00,59.1,15.6,30.19,SE,129,3.0,9.0,18,0.00,,,0.00,Wunderground v.1.15,2013-11-07 08:43:00,
2013-11-07 01:48:00,59.6,14.7,30.19,SE,139,4.0,9.0,17,0.00,,,0.00,Wunderground v.1.15,2013-11-07 08:48:00,
2013-11-07 01:54:00,60.1,13.7,30.19,SSE,147,5.0,5.0,16,0.00,,,0.00,Wunderground v.1.15,2013-11-07 08:54:00,
2013-11-07 02:00:00,60.7,12.7,30.19,SSE,147,4.0,4.0,15,0.00,,,0.00,Wunderground v.1.15,2013-11-07 09:00:00,
2013-11-07 02:06:00,61.0,11.4,30.19,SE,132,5.0,7.0,14,0.00,,,0.00,Wunderground v.1.15,2013-11-07 09:06:00,
2013-11-07 02:12:00,61.3,11.6,30.19,SSE,151,5.0,5.0,14,0.00,,,0.00,Wunderground v.1.15,2013-11-07 09:12:00,
2013-11-07 02:18:00,61.2,14.6,30.19,South,179,3.0,5.0,16,0.00,,,0.00,Wunderground v.1.15,2013-11-07 09:18:00,
2013-11-07 02:23:00,60.6,12.6,30.19,SSE,163,2.0,4.0,15,0.00,,,0.00,Wunderground v.1.15,2013-11-07 09:23:00,
2013-11-07 02:29:00,60.1,15.1,30.19,South,190,2.0,4.0,17,0.00,,,0.00,Wunderground v.1.15,2013-11-07 09:29:00,
2013-11-07 02:35:00,59.7,11.9,30.19,SE,145,3.0,5.0,15,0.00,,,0.00,Wunderground v.1.15,2013-11-07 09:35:00,
2013-11-07 02:40:00,59.7,11.9,30.19,SSE,149,4.0,4.0,15,0.00,,,0.00,Wunderground v.1.15,2013-11-07 09:40:00,
2013-11-07 02:45:00,60.0,10.6,30.19,SE,144,4.0,9.0,14,0.00,,,0.00,Wunderground v.1.15,2013-11-07 09:45:00,
2013-11-07 02:51:00,60.4,10.9,30.19,SE,134,4.0,4.0,14,0.00,,,0.00,Wunderground v.1.15,2013-11-07 09:51:00,
2013-11-07 02:57:00,60.4,10.9,30.19,SE,133,4.0,5.0,14,0.00,,,0.00,Wunderground v.1.15,2013-11-07 09:57:00,
2013-11-07 03:02:00,60.1,13.7,30.19,SSW,202,3.0,3.0,16,0.00,,,0.00,Wunderground v.1.15,2013-11-07 10:02:00,
2013-11-07 03:08:00,59.2,14.3,30.18,SSW,202,3.0,6.0,17,0.00,,,0.00,Wunderground v.1.15,2013-11-07 10:08:00,
2013-11-07 03:14:00,58.7,13.9,30.19,SSW,198,3.0,6.0,17,0.00,,,0.00,Wunderground v.1.15,2013-11-07 10:14:00,
2013-11-07 03:20:00,58.3,13.6,30.19,SSW,197,3.0,3.0,17,0.00,,,0.00,Wunderground v.1.15,2013-11-07 10:20:00,
2013-11-07 03:25:00,58.2,13.5,30.19,SSW,211,3.0,6.0,17,0.00,,,0.00,Wunderground v.1.15,2013-11-07 10:25:00,
2013-11-07 03:31:00,58.2,13.5,30.19,SSW,197,3.0,4.0,17,0.00,,,0.00,Wunderground v.1.15,2013-11-07 10:31:00,
2013-11-07 03:36:00,58.1,13.4,30.19,SSW,198,3.0,4.0,17,0.00,,,0.00,Wunderground v.1.15,2013-11-07 10:36:00,
2013-11-07 03:41:00,58.1,13.4,30.19,SSW,200,2.0,2.0,17,0.00,,,0.00,Wunderground v.1.15,2013-11-07 10:41:00,
2013-11-07 03:46:00,58.0,14.7,30.19,SSW,200,2.0,4.0,18,0.00,,,0.00,Wunderground v.1.15,2013-11-07 10:46:00,
2013-11-07 03:52:00,57.8,13.2,30.19,SSW,200,2.0,3.0,17,0.00,,,0.00,Wunderground v.1.15,2013-11-07 10:52:00,
2013-11-07 03:58:00,57.7,13.1,30.19,SSW,202,3.0,5.0,17,0.00,,,0.00,Wunderground v.1.15,2013-11-07 10:58:00,
2013-11-07 04:04:00,57.7,13.1,30.19,SSW,202,3.0,5.0,17,0.00,,,0.00,Wunderground v.1.15,2013-11-07 11:04:00,
2013-11-07 04:09:00,57.6,13.0,30.19,SSW,203,3.0,6.0,17,0.00,,,0.00,Wunderground v.1.15,2013-11-07 11:09:00,
2013-11-07 04:15:00,57.6,13.0,30.20,SSW,201,4.0,8.0,17,0.00,,,0.00,Wunderground v.1.15,2013-11-07 11:15:00,
2013-11-07 04:21:00,57.7,13.1,30.20,SSW,198,4.0,4.0,17,0.00,,,0.00,Wunderground v.1.15,2013-11-07 11:21:00,
2013-11-07 04:27:00,57.8,11.8,30.20,SSE,159,3.0,4.0,16,0.00,,,0.00,Wunderground v.1.15,2013-11-07 11:27:00,
2013-11-07 04:32:00,57.9,11.9,30.20,SSW,194,3.0,3.0,16,0.00,,,0.00,Wunderground v.1.15,2013-11-07 11:32:00,
2013-11-07 04:34:00,57.9,11.9,30.20,SSE,157,3.0,4.0,16,0.00,,,0.00,Wunderground v.1.15,2013-11-07 11:34:00,
2013-11-07 04:40:00,57.9,11.9,30.20,SSE,168,3.0,4.0,16,0.00,,,0.00,Wunderground v.1.15,2013-11-07 11:40:00,
2013-11-07 04:46:00,57.7,13.1,30.20,SSE,163,3.0,6.0,17,0.00,,,0.00,Wunderground v.1.15,2013-11-07 11:46:00,
2013-11-07 04:51:00,57.4,12.9,30.20,South,173,3.0,5.0,17,0.00,,,0.00,Wunderground v.1.15,2013-11-07 11:51:00,
2013-11-07 04:57:00,57.3,12.8,30.20,South,179,3.0,6.0,17,0.00,,,0.00,Wunderground v.1.15,2013-11-07 11:57:00,
2013-11-07 05:02:00,57.2,12.7,30.20,South,188,3.0,5.0,17,0.00,,,0.00,Wunderground v.1.15,2013-11-07 12:02:00,
2013-11-07 05:08:00,57.1,12.6,30.19,SSW,200,3.0,6.0,17,0.00,,,0.00,Wunderground v.1.15,2013-11-07 12:08:00,
2013-11-07 05:14:00,57.0,12.5,30.20,SSW,208,3.0,4.0,17,0.00,,,0.00,Wunderground v.1.15,2013-11-07 12:14:00,
2013-11-07 05:19:00,56.8,12.4,30.19,South,185,3.0,4.0,17,0.00,,,0.00,Wunderground v.1.15,2013-11-07 12:19:00,
2013-11-07 05:24:00,56.5,12.1,30.19,SSW,205,3.0,4.0,17,0.00,,,0.00,Wunderground v.1.15,2013-11-07 12:24:00,
2013-11-07 05:30:00,56.4,12.1,30.20,South,187,3.0,3.0,17,0.00,,,0.00,Wunderground v.1.15,2013-11-07 12:30:00,
2013-11-07 05:36:00,56.3,12.0,30.20,SE,146,3.0,6.0,17,0.00,,,0.00,Wunderground v.1.15,2013-11-07 12:36:00,
2013-11-07 05:42:00,56.4,12.1,30.20,SSW,193,3.0,4.0,17,0.00,,,0.00,Wunderground v.1.15,2013-11-07 12:42:00,
2013-11-07 05:48:00,56.4,12.1,30.20,South,185,3.0,5.0,17,0.00,,,0.00,Wunderground v.1.15,2013-11-07 12:48:00,
2013-11-07 05:53:00,56.4,12.1,30.20,SSW,205,3.0,6.0,17,0.00,,,0.00,Wunderground v.1.15,2013-11-07 12:53:00,
2013-11-07 05:59:00,56.4,12.1,30.20,SSW,202,2.0,6.0,17,0.00,,,0.00,Wunderground v.1.15,2013-11-07 12:59:00,
2013-11-07 06:04:00,56.4,12.1,30.20,SSW,198,2.0,3.0,17,0.00,,,0.00,Wunderground v.1.15,2013-11-07 13:04:00,
2013-11-07 06:09:00,56.4,12.1,30.20,SSW,198,2.0,5.0,17,0.00,,,0.00,Wunderground v.1.15,2013-11-07 13:09:00,
2013-11-07 06:15:00,56.2,11.9,30.20,SSW,192,3.0,5.0,17,0.00,,,0.00,Wunderground v.1.15,2013-11-07 13:15:00,
2013-11-07 06:20:00,56.1,11.8,30.20,SSW,202,3.0,3.0,17,0.00,,,0.00,Wunderground v.1.15,2013-11-07 13:20:00,
2013-11-07 06:26:00,56.0,11.7,30.20,SSW,203,3.0,4.0,17,0.00,,,0.00,Wunderground v.1.15,2013-11-07 13:26:00,
2013-11-07 06:32:00,55.9,11.6,30.20,SSW,199,3.0,6.0,17,0.00,,,0.00,Wunderground v.1.15,2013-11-07 13:32:00,
2013-11-07 06:38:00,55.8,11.6,30.20,SSW,203,3.0,6.0,17,0.00,,,0.00,Wunderground v.1.15,2013-11-07 13:38:00,
2013-11-07 06:44:00,55.7,11.5,30.21,SSW,201,3.0,4.0,17,0.00,,,0.00,Wunderground v.1.15,2013-11-07 13:44:00,
2013-11-07 06:49:00,55.7,11.5,30.20,SSW,198,3.0,4.0,17,0.00,,,0.00,Wunderground v.1.15,2013-11-07 13:49:00,
2013-11-07 06:55:00,55.8,11.6,30.20,SSW,198,3.0,5.0,17,0.00,,,0.00,Wunderground v.1.15,2013-11-07 13:55:00,
2013-11-07 07:00:00,56.1,11.8,30.20,SSW,198,3.0,3.0,17,0.00,,,0.00,Wunderground v.1.15,2013-11-07 14:00:00,
2013-11-07 07:06:00,56.7,12.3,30.21,SSW,208,3.0,4.0,17,0.00,,,0.00,Wunderground v.1.15,2013-11-07 14:06:00,
2013-11-07 07:11:00,56.8,13.7,30.21,SSW,197,3.0,3.0,18,0.00,,,0.00,Wunderground v.1.15,2013-11-07 14:11:00,
2013-11-07 07:17:00,57.1,13.9,30.21,SSW,204,3.0,4.0,18,0.00,,,0.00,Wunderground v.1.15,2013-11-07 14:17:00,
2013-11-07 07:22:00,57.5,14.3,30.21,SSW,204,3.0,3.0,18,0.00,,,0.00,Wunderground v.1.15,2013-11-07 14:22:00,
2013-11-07 07:28:00,57.9,14.6,30.21,SSW,196,3.0,4.0,18,0.00,,,0.00,Wunderground v.1.15,2013-11-07 14:28:00,
2013-11-07 07:33:00,58.2,14.8,30.22,SSE,151,2.0,5.0,18,0.00,,,0.00,Wunderground v.1.15,2013-11-07 14:33:00,
2013-11-07 07:39:00,58.5,15.1,30.22,SE,137,3.0,6.0,18,0.00,,,0.00,Wunderground v.1.15,2013-11-07 14:39:00,
2013-11-07 07:44:00,59.1,15.6,30.22,SW,220,3.0,5.0,18,0.00,,,0.00,Wunderground v.1.15,2013-11-07 14:44:00,
2013-11-07 07:50:00,59.8,16.1,30.22,SSW,213,3.0,3.0,18,0.00,,,0.00,Wunderground v.1.15,2013-11-07 14:50:00,
2013-11-07 07:55:00,60.4,16.6,30.22,SE,139,3.0,5.0,18,0.00,,,0.00,Wunderground v.1.15,2013-11-07 14:55:00,
2013-11-07 08:01:00,61.1,17.2,30.22,SSE,156,2.0,4.0,18,0.00,,,0.00,Wunderground v.1.15,2013-11-07 15:01:00,
2013-11-07 08:07:00,61.9,17.9,30.23,SSW,194,2.0,5.0,18,0.00,,,0.00,Wunderground v.1.15,2013-11-07 15:07:00,
2013-11-07 08:13:00,62.3,18.2,30.22,South,173,3.0,5.0,18,0.00,,,0.00,Wunderground v.1.15,2013-11-07 15:13:00,
2013-11-07 08:18:00,63.1,18.9,30.22,SE,141,3.0,5.0,18,0.00,,,0.00,Wunderground v.1.15,2013-11-07 15:18:00,
2013-11-07 08:24:00,63.8,19.4,30.22,SSW,194,3.0,5.0,18,0.00,,,0.00,Wunderground v.1.15,2013-11-07 15:24:00,
2013-11-07 08:30:00,64.8,18.9,30.22,SE,141,3.0,5.0,17,0.00,,,0.00,Wunderground v.1.15,2013-11-07 15:30:00,
2013-11-07 08:36:00,65.5,19.5,30.22,SSE,150,4.0,8.0,17,0.00,,,0.00,Wunderground v.1.15,2013-11-07 15:36:00,
2013-11-07 08:41:00,66.3,20.1,30.22,SE,142,5.0,7.0,17,0.00,,,0.00,Wunderground v.1.15,2013-11-07 15:41:00,
2013-11-07 08:47:00,67.1,19.4,30.22,SE,128,6.0,8.0,16,0.00,,,0.00,Wunderground v.1.15,2013-11-07 15:47:00,
2013-11-07 08:52:00,67.3,19.5,30.21,SE,144,6.0,10.0,16,0.00,,,0.00,Wunderground v.1.15,2013-11-07 15:52:00,
2013-11-07 08:58:00,68.0,20.1,30.21,ESE,122,6.0,10.0,16,0.00,,,0.00,Wunderground v.1.15,2013-11-07 15:58:00,
2013-11-07 09:03:00,68.9,20.8,30.21,SE,146,4.0,6.0,16,0.00,,,0.00,Wunderground v.1.15,2013-11-07 16:03:00,
2013-11-07 09:09:00,69.6,21.4,30.21,ESE,109,4.0,8.0,16,0.00,,,0.00,Wunderground v.1.15,2013-11-07 16:09:00,
2013-11-07 09:15:00,70.0,21.7,30.21,ESE,120,5.0,8.0,16,0.00,,,0.00,Wunderground v.1.15,2013-11-07 16:15:00,
2013-11-07 09:21:00,70.3,20.4,30.21,ESE,108,6.0,9.0,15,0.00,,,0.00,Wunderground v.1.15,2013-11-07 16:21:00,
2013-11-07 09:27:00,70.6,20.7,30.21,SE,124,8.0,10.0,15,0.00,,,0.00,Wunderground v.1.15,2013-11-07 16:27:00,
2013-11-07 09:32:00,71.0,21.0,30.21,ESE,104,8.0,8.0,15,0.00,,,0.00,Wunderground v.1.15,2013-11-07 16:32:00,
2013-11-07 09:38:00,71.8,21.6,30.21,ESE,102,8.0,11.0,15,0.00,,,0.00,Wunderground v.1.15,2013-11-07 16:38:00,
2013-11-07 09:43:00,72.2,21.9,30.21,ESE,110,8.0,10.0,15,0.00,,,0.00,Wunderground v.1.15,2013-11-07 16:43:00,
2013-11-07 09:49:00,72.2,21.9,30.21,ESE,109,8.0,10.0,15,0.00,,,0.00,Wunderground v.1.15,2013-11-07 16:49:00,
2013-11-07 09:55:00,72.8,24.0,30.21,ESE,108,8.0,9.0,16,0.00,,,0.00,Wunderground v.1.15,2013-11-07 16:55:00,
2013-11-07 10:00:00,73.1,24.2,30.20,ESE,117,8.0,8.0,16,0.00,,,0.00,Wunderground v.1.15,2013-11-07 17:00:00,
2013-11-07 10:05:00,73.3,24.4,30.20,ESE,123,8.0,16.0,16,0.00,,,0.00,Wunderground v.1.15,2013-11-07 17:05:00,
2013-11-07 10:11:00,73.6,26.1,30.20,SE,128,10.0,14.0,17,0.00,,,0.00,Wunderground v.1.15,2013-11-07 17:11:00,
2013-11-07 10:17:00,73.9,27.7,30.20,SE,141,12.0,19.0,18,0.00,,,0.00,Wunderground v.1.15,2013-11-07 17:17:00,
2013-11-07 10:23:00,74.2,23.5,30.20,SE,131,13.0,16.0,15,0.00,,,0.00,Wunderground v.1.15,2013-11-07 17:23:00,
2013-11-07 10:29:00,74.9,27.1,30.20,ESE,120,11.0,17.0,17,0.00,,,0.00,Wunderground v.1.15,2013-11-07 17:29:00,
2013-11-07 10:35:00,74.6,28.3,30.20,ESE,121,12.0,13.0,18,0.00,,,0.00,Wunderground v.1.15,2013-11-07 17:35:00,
2013-11-07 10:40:00,74.5,26.8,30.20,ESE,104,13.0,18.0,17,0.00,,,0.00,Wunderground v.1.15,2013-11-07 17:40:00,
2013-11-07 10:46:00,74.5,28.2,30.19,SSE,155,14.0,18.0,18,0.00,,,0.00,Wunderground v.1.15,2013-11-07 17:46:00,
2013-11-07 10:51:00,75.2,27.4,30.19,SE,138,13.0,17.0,17,0.00,,,0.00,Wunderground v.1.15,2013-11-07 17:51:00,
2013-11-07 10:56:00,75.0,27.2,30.19,SE,133,14.0,19.0,17,0.00,,,0.00,Wunderground v.1.15,2013-11-07 17:56:00,
2013-11-07 10:59:00,75.1,27.3,30.19,SE,141,14.0,19.0,17,0.00,,,0.00,Wunderground v.1.15,2013-11-07 17:59:00,
2013-11-07 11:05:00,75.3,27.4,30.19,East,96,13.0,20.0,17,0.00,,,0.00,Wunderground v.1.15,2013-11-07 18:05:00,
2013-11-07 11:11:00,75.7,27.8,30.19,East,100,14.0,15.0,17,0.00,,,0.00,Wunderground v.1.15,2013-11-07 18:11:00,
2013-11-07 11:17:00,75.5,27.6,30.18,SSE,157,13.0,15.0,17,0.00,,,0.00,Wunderground v.1.15,2013-11-07 18:17:00,
2013-11-07 11:22:00,75.6,27.7,30.19,SE,124,13.0,13.0,17,0.00,,,0.00,Wunderground v.1.15,2013-11-07 18:22:00,
2013-11-07 11:28:00,76.4,28.3,30.18,SE,129,12.0,19.0,17,0.00,,,0.00,Wunderground v.1.15,2013-11-07 18:28:00,
2013-11-07 11:34:00,76.2,26.7,30.18,East,96,12.0,13.0,16,0.00,,,0.00,Wunderground v.1.15,2013-11-07 18:34:00,
2013-11-07 11:39:00,76.5,26.9,30.17,East,97,12.0,14.0,16,0.00,,,0.00,Wunderground v.1.15,2013-11-07 18:39:00,
2013-11-07 11:44:00,76.9,25.7,30.17,SE,131,11.0,14.0,15,0.00,,,0.00,Wunderground v.1.15,2013-11-07 18:44:00,
2013-11-07 11:50:00,76.6,27.0,30.17,ESE,108,12.0,12.0,16,0.00,,,0.00,Wunderground v.1.15,2013-11-07 18:50:00,
2013-11-07 11:56:00,76.9,25.7,30.17,ESE,121,11.0,15.0,15,0.00,,,0.00,Wunderground v.1.15,2013-11-07 18:56:00,
2013-11-07 12:02:00,77.5,26.2,30.17,ESE,114,10.0,10.0,15,0.00,,,0.00,Wunderground v.1.15,2013-11-07 19:02:00,
2013-11-07 12:07:00,77.2,25.9,30.16,ESE,108,10.0,21.0,15,0.00,,,0.00,Wunderground v.1.15,2013-11-07 19:07:00,
2013-11-07 12:13:00,77.1,25.9,30.16,SSE,148,12.0,15.0,15,0.00,,,0.00,Wunderground v.1.15,2013-11-07 19:13:00,
2013-11-07 12:18:00,77.4,26.1,30.16,SE,132,12.0,15.0,15,0.00,,,0.00,Wunderground v.1.15,2013-11-07 19:18:00,
2013-11-07 12:24:00,77.7,26.3,30.15,ESE,110,10.0,13.0,15,0.00,,,0.00,Wunderground v.1.15,2013-11-07 19:24:00,
2013-11-07 12:30:00,77.9,26.5,30.15,East,100,10.0,10.0,15,0.00,,,0.00,Wunderground v.1.15,2013-11-07 19:30:00,
2013-11-07 12:36:00,77.8,26.4,30.14,ENE,75,11.0,11.0,15,0.00,,,0.00,Wunderground v.1.15,2013-11-07 19:36:00,
2013-11-07 12:41:00,78.0,26.6,30.14,ENE,76,11.0,11.0,15,0.00,,,0.00,Wunderground v.1.15,2013-11-07 19:41:00,
2013-11-07 12:47:00,78.3,26.8,30.14,East,98,11.0,14.0,15,0.00,,,0.00,Wunderground v.1.15,2013-11-07 19:47:00,
2013-11-07 12:53:00,78.0,26.6,30.13,SE,126,11.0,11.0,15,0.00,,,0.00,Wunderground v.1.15,2013-11-07 19:53:00,
2013-11-07 12:59:00,78.7,27.1,30.13,ESE,108,11.0,14.0,15,0.00,,,0.00,Wunderground v.1.15,2013-11-07 19:59:00,
2013-11-07 13:05:00,78.7,27.1,30.12,ESE,106,10.0,14.0,15,0.00,,,0.00,Wunderground v.1.15,2013-11-07 20:05:00,
2013-11-07 13:11:00,79.0,27.4,30.12,ESE,106,10.0,10.0,15,0.00,,,0.00,Wunderground v.1.15,2013-11-07 20:11:00,
2013-11-07 13:16:00,79.1,27.5,30.11,ESE,113,10.0,16.0,15,0.00,,,0.00,Wunderground v.1.15,2013-11-07 20:16:00,
2013-11-07 13:22:00,79.3,27.6,30.11,East,100,10.0,10.0,15,0.00,,,0.00,Wunderground v.1.15,2013-11-07 20:22:00,
2013-11-07 13:28:00,79.9,28.1,30.11,ESE,105,9.0,10.0,15,0.00,,,0.00,Wunderground v.1.15,2013-11-07 20:28:00,
2013-11-07 13:34:00,80.4,26.8,30.10,SSE,156,8.0,10.0,14,0.00,,,0.00,Wunderground v.1.15,2013-11-07 20:34:00,
2013-11-07 13:40:00,80.4,28.5,30.10,ESE,117,9.0,9.0,15,0.00,,,0.00,Wunderground v.1.15,2013-11-07 20:40:00,
2013-11-07 13:46:00,79.9,28.1,30.10,ESE,106,9.0,11.0,15,0.00,,,0.00,Wunderground v.1.15,2013-11-07 20:46:00,
2013-11-07 13:51:00,79.9,28.1,30.10,SE,128,9.0,13.0,15,0.00,,,0.00,Wunderground v.1.15,2013-11-07 20:51:00,
2013-11-07 13:57:00,80.6,27.0,30.10,East,98,9.0,13.0,14,0.00,,,0.00,Wunderground v.1.15,2013-11-07 20:57:00,
2013-11-07 14:03:00,81.1,29.1,30.09,East,101,8.0,9.0,15,0.00,,,0.00,Wunderground v.1.15,2013-11-07 21:03:00,
2013-11-07 14:09:00,80.8,28.8,30.09,ESE,105,7.0,13.0,15,0.00,,,0.00,Wunderground v.1.15,2013-11-07 21:09:00,
2013-11-07 14:14:00,80.9,28.9,30.09,East,96,7.0,9.0,15,0.00,,,0.00,Wunderground v.1.15,2013-11-07 21:14:00,
2013-11-07 14:19:00,81.7,27.8,30.09,SE,136,7.0,12.0,14,0.00,,,0.00,Wunderground v.1.15,2013-11-07 21:19:00,
2013-11-07 14:24:00,80.9,27.2,30.09,ESE,112,7.0,8.0,14,0.00,,,0.00,Wunderground v.1.15,2013-11-07 21:24:00,
2013-11-07 14:30:00,80.8,28.8,30.09,SE,125,7.0,7.0,15,0.00,,,0.00,Wunderground v.1.15,2013-11-07 21:30:00,
2013-11-07 14:36:00,80.9,27.2,30.09,ESE,108,7.0,12.0,14,0.00,,,0.00,Wunderground v.1.15,2013-11-07 21:36:00,
2013-11-07 14:42:00,81.3,27.5,30.09,ESE,110,6.0,7.0,14,0.00,,,0.00,Wunderground v.1.15,2013-11-07 21:42:00,
2013-11-07 14:47:00,81.0,27.3,30.09,SE,125,6.0,7.0,14,0.00,,,0.00,Wunderground v.1.15,2013-11-07 21:47:00,
2013-11-07 14:53:00,81.1,27.4,30.09,ESE,121,6.0,9.0,14,0.00,,,0.00,Wunderground v.1.15,2013-11-07 21:53:00,
2013-11-07 14:59:00,81.0,27.3,30.09,ESE,121,7.0,14.0,14,0.00,,,0.00,Wunderground v.1.15,2013-11-07 21:59:00,
2013-11-07 15:04:00,81.5,27.7,30.08,ESE,106,6.0,7.0,14,0.00,,,0.00,Wunderground v.1.15,2013-11-07 22:04:00,
2013-11-07 15:09:00,81.3,27.5,30.08,ESE,103,6.0,10.0,14,0.00,,,0.00,Wunderground v.1.15,2013-11-07 22:09:00,
2013-11-07 15:15:00,81.6,27.8,30.08,ESE,118,6.0,8.0,14,0.00,,,0.00,Wunderground v.1.15,2013-11-07 22:15:00,
2013-11-07 15:20:00,81.2,27.4,30.08,ESE,117,6.0,8.0,14,0.00,,,0.00,Wunderground v.1.15,2013-11-07 22:20:00,
2013-11-07 15:26:00,81.3,27.5,30.08,ENE,57,6.0,10.0,14,0.00,,,0.00,Wunderground v.1.15,2013-11-07 22:26:00,
2013-11-07 15:32:00,81.3,27.5,30.07,East,101,6.0,10.0,14,0.00,,,0.00,Wunderground v.1.15,2013-11-07 22:32:00,
2013-11-07 15:38:00,80.9,27.2,30.08,ESE,110,7.0,13.0,14,0.00,,,0.00,Wunderground v.1.15,2013-11-07 22:38:00,
2013-11-07 15:44:00,80.6,27.0,30.07,SE,135,7.0,8.0,14,0.00,,,0.00,Wunderground v.1.15,2013-11-07 22:44:00,
2013-11-07 15:50:00,80.7,28.7,30.07,East,89,6.0,6.0,15,0.00,,,0.00,Wunderground v.1.15,2013-11-07 22:50:00,
2013-11-07 15:56:00,80.7,28.7,30.07,ESE,108,5.0,6.0,15,0.00,,,0.00,Wunderground v.1.15,2013-11-07 22:56:00,
2013-11-07 16:02:00,80.4,28.5,30.07,ESE,110,6.0,8.0,15,0.00,,,0.00,Wunderground v.1.15,2013-11-07 23:02:00,
2013-11-07 16:08:00,80.4,28.5,30.07,ESE,109,6.0,8.0,15,0.00,,,0.00,Wunderground v.1.15,2013-11-07 23:08:00,
2013-11-07 16:14:00,80.2,28.3,30.07,ESE,103,6.0,9.0,15,0.00,,,0.00,Wunderground v.1.15,2013-11-07 23:14:00,
2013-11-07 16:19:00,80.2,28.3,30.07,East,90,6.0,9.0,15,0.00,,,0.00,Wunderground v.1.15,2013-11-07 23:19:00,
2013-11-07 16:25:00,80.1,28.3,30.07,ESE,111,6.0,8.0,15,0.00,,,0.00,Wunderground v.1.15,2013-11-07 23:25:00,
2013-11-07 16:31:00,80.0,28.2,30.07,ESE,110,6.0,6.0,15,0.00,,,0.00,Wunderground v.1.15,2013-11-07 23:31:00,
2013-11-07 16:37:00,79.9,28.1,30.07,ESE,107,6.0,6.0,15,0.00,,,0.00,Wunderground v.1.15,2013-11-07 23:37:00,
2013-11-07 16:43:00,79.7,27.9,30.07,East,98,6.0,12.0,15,0.00,,,0.00,Wunderground v.1.15,2013-11-07 23:43:00,
2013-11-07 16:49:00,79.6,29.4,30.07,SE,126,6.0,12.0,16,0.00,,,0.00,Wunderground v.1.15,2013-11-07 23:49:00,
2013-11-07 16:54:00,79.5,29.4,30.07,ESE,112,5.0,9.0,16,0.00,,,0.00,Wunderground v.1.15,2013-11-07 23:54:00,
2013-11-07 17:00:00,79.3,29.2,30.07,ESE,104,5.0,6.0,16,0.00,,,0.00,Wunderground v.1.15,2013-11-08 00:00:00,
2013-11-07 17:05:00,79.1,29.0,30.07,ESE,112,6.0,9.0,16,0.00,,,0.00,Wunderground v.1.15,2013-11-08 00:05:00,
2013-11-07 17:11:00,78.9,28.9,30.07,ESE,104,5.0,5.0,16,0.00,,,0.00,Wunderground v.1.15,2013-11-08 00:11:00,
2013-11-07 17:16:00,78.7,28.7,30.07,ESE,123,4.0,5.0,16,0.00,,,0.00,Wunderground v.1.15,2013-11-08 00:16:00,
2013-11-07 17:22:00,78.3,28.4,30.07,ESE,106,3.0,3.0,16,0.00,,,0.00,Wunderground v.1.15,2013-11-08 00:22:00,
2013-11-07 17:27:00,78.0,26.6,30.07,ESE,110,3.0,4.0,15,0.00,,,0.00,Wunderground v.1.15,2013-11-08 00:27:00,
2013-11-07 17:33:00,77.7,26.3,30.07,ESE,109,2.0,3.0,15,0.00,,,0.00,Wunderground v.1.15,2013-11-08 00:33:00,
2013-11-07 17:38:00,77.4,27.7,30.07,ESE,109,1.0,3.0,16,0.00,,,0.00,Wunderground v.1.15,2013-11-08 00:38:00,
2013-11-07 17:44:00,77.2,27.5,30.07,ESE,109,0.0,1.0,16,0.00,,,0.00,Wunderground v.1.15,2013-11-08 00:44:00,
2013-11-07 17:49:00,76.8,27.2,30.07,ESE,109,0.0,2.0,16,0.00,,,0.00,Wunderground v.1.15,2013-11-08 00:49:00,
2013-11-07 17:55:00,76.3,26.8,30.07,ESE,109,0.0,1.0,16,0.00,,,0.00,Wunderground v.1.15,2013-11-08 00:55:00,
2013-11-07 18:00:00,75.8,26.4,30.07,ESE,117,1.0,2.0,16,0.00,,,0.00,Wunderground v.1.15,2013-11-08 01:00:00,
2013-11-07 18:06:00,75.3,26.0,30.07,ESE,117,2.0,4.0,16,0.00,,,0.00,Wunderground v.1.15,2013-11-08 01:06:00,
2013-11-07 18:11:00,74.8,25.6,30.08,ESE,121,2.0,4.0,16,0.00,,,0.00,Wunderground v.1.15,2013-11-08 01:11:00,
2013-11-07 18:17:00,74.4,26.7,30.07,SE,124,2.0,4.0,17,0.00,,,0.00,Wunderground v.1.15,2013-11-08 01:17:00,
2013-11-07 18:23:00,74.1,26.5,30.07,SE,124,2.0,3.0,17,0.00,,,0.00,Wunderground v.1.15,2013-11-08 01:23:00,
2013-11-07 18:29:00,73.7,26.1,30.08,SE,124,3.0,4.0,17,0.00,,,0.00,Wunderground v.1.15,2013-11-08 01:29:00,
2013-11-07 18:34:00,73.5,26.0,30.07,ESE,123,3.0,4.0,17,0.00,,,0.00,Wunderground v.1.15,2013-11-08 01:34:00,
2013-11-07 18:40:00,73.3,25.8,30.08,ESE,120,3.0,3.0,17,0.00,,,0.00,Wunderground v.1.15,2013-11-08 01:40:00,
2013-11-07 18:46:00,73.2,25.7,30.08,ESE,121,2.0,3.0,17,0.00,,,0.00,Wunderground v.1.15,2013-11-08 01:46:00,
2013-11-07 18:51:00,73.0,25.6,30.08,ESE,122,2.0,2.0,17,0.00,,,0.00,Wunderground v.1.15,2013-11-08 01:51:00,
2013-11-07 18:56:00,72.9,25.5,30.08,ESE,121,2.0,4.0,17,0.00,,,0.00,Wunderground v.1.15,2013-11-08 01:56:00,
2013-11-07 19:02:00,72.6,25.3,30.08,ESE,123,2.0,4.0,17,0.00,,,0.00,Wunderground v.1.15,2013-11-08 02:02:00,
2013-11-07 19:08:00,72.5,25.2,30.08,ESE,123,2.0,4.0,17,0.00,,,0.00,Wunderground v.1.15,2013-11-08 02:08:00,
2013-11-07 19:13:00,72.3,25.0,30.08,ESE,123,1.0,2.0,17,0.00,,,0.00,Wunderground v.1.15,2013-11-08 02:13:00,
2013-11-07 19:19:00,72.1,24.8,30.08,SE,124,0.0,2.0,17,0.00,,,0.00,Wunderground v.1.15,2013-11-08 02:19:00,
2013-11-07 19:24:00,71.9,26.1,30.08,SE,124,0.0,0.0,18,0.00,,,0.00,Wunderground v.1.15,2013-11-08 02:24:00,
2013-11-07 19:29:00,71.7,25.9,30.08,SE,141,1.0,1.0,18,0.00,,,0.00,Wunderground v.1.15,2013-11-08 02:29:00,
2013-11-07 19:35:00,71.5,25.7,30.08,SE,144,2.0,4.0,18,0.00,,,0.00,Wunderground v.1.15,2013-11-08 02:35:00,
2013-11-07 19:41:00,71.4,25.7,30.08,SE,144,1.0,2.0,18,0.00,,,0.00,Wunderground v.1.15,2013-11-08 02:41:00,
2013-11-07 19:47:00,71.3,25.6,30.08,SE,146,1.0,2.0,18,0.00,,,0.00,Wunderground v.1.15,2013-11-08 02:47:00,
2013-11-07 19:53:00,71.1,25.4,30.08,SSE,148,2.0,4.0,18,0.00,,,0.00,Wunderground v.1.15,2013-11-08 02:53:00,
2013-11-07 19:59:00,71.0,25.3,30.08,SSE,163,1.0,4.0,18,0.00,,,0.00,Wunderground v.1.15,2013-11-08 02:59:00,
2013-11-07 20:04:00,70.8,26.5,30.08,SSE,163,1.0,2.0,19,0.00,,,0.00,Wunderground v.1.15,2013-11-08 03:04:00,
2013-11-07 20:09:00,70.5,26.2,30.08,South,173,1.0,4.0,19,0.00,,,0.00,Wunderground v.1.15,2013-11-08 03:09:00,
2013-11-07 20:15:00,70.3,26.1,30.08,South,173,1.0,1.0,19,0.00,,,0.00,Wunderground v.1.15,2013-11-08 03:15:00,
2013-11-07 20:20:00,70.1,25.9,30.08,South,173,1.0,1.0,19,0.00,,,0.00,Wunderground v.1.15,2013-11-08 03:20:00,
2013-11-07 20:26:00,69.9,25.7,30.08,South,173,1.0,3.0,19,0.00,,,0.00,Wunderground v.1.15,2013-11-08 03:26:00,
2013-11-07 20:31:00,69.7,25.6,30.08,South,180,2.0,3.0,19,0.00,,,0.00,Wunderground v.1.15,2013-11-08 03:31:00,
2013-11-07 20:37:00,69.5,26.6,30.08,South,182,2.0,3.0,20,0.00,,,0.00,Wunderground v.1.15,2013-11-08 03:37:00,
2013-11-07 20:42:00,69.2,26.4,30.08,South,190,3.0,3.0,20,0.00,,,0.00,Wunderground v.1.15,2013-11-08 03:42:00,
2013-11-07 20:48:00,69.0,26.2,30.08,South,191,2.0,3.0,20,0.00,,,0.00,Wunderground v.1.15,2013-11-08 03:48:00,
2013-11-07 20:53:00,68.9,26.1,30.09,SSW,192,1.0,5.0,20,0.00,,,0.00,Wunderground v.1.15,2013-11-08 03:53:00,
2013-11-07 20:59:00,68.8,26.1,30.08,SSW,194,2.0,5.0,20,0.00,,,0.00,Wunderground v.1.15,2013-11-08 03:59:00,
2013-11-07 21:04:00,68.7,27.2,30.09,SSW,192,2.0,5.0,21,0.00,,,0.00,Wunderground v.1.15,2013-11-08 04:04:00,
2013-11-07 21:10:00,68.7,27.2,30.09,SSW,199,2.0,5.0,21,0.00,,,0.00,Wunderground v.1.15,2013-11-08 04:10:00,
2013-11-07 21:15:00,68.6,27.1,30.09,SSW,201,3.0,7.0,21,0.00,,,0.00,Wunderground v.1.15,2013-11-08 04:15:00,
2013-11-07 21:21:00,68.5,27.0,30.09,SSW,204,4.0,4.0,21,0.00,,,0.00,Wunderground v.1.15,2013-11-08 04:21:00,
2013-11-07 21:26:00,68.3,26.8,30.09,SSW,204,4.0,4.0,21,0.00,,,0.00,Wunderground v.1.15,2013-11-08 04:26:00,
2013-11-07 21:32:00,68.3,26.8,30.10,SSW,206,4.0,4.0,21,0.00,,,0.00,Wunderground v.1.15,2013-11-08 04:32:00,
2013-11-07 21:38:00,68.4,26.9,30.10,SSW,202,3.0,7.0,21,0.00,,,0.00,Wunderground v.1.15,2013-11-08 04:38:00,
2013-11-07 21:44:00,68.5,27.0,30.10,SSW,194,3.0,5.0,21,0.00,,,0.00,Wunderground v.1.15,2013-11-08 04:44:00,
2013-11-07 21:50:00,68.5,27.0,30.10,SSW,194,3.0,3.0,21,0.00,,,0.00,Wunderground v.1.15,2013-11-08 04:50:00,
2013-11-07 21:55:00,68.4,26.9,30.10,SSW,192,3.0,4.0,21,0.00,,,0.00,Wunderground v.1.15,2013-11-08 04:55:00,
2013-11-07 22:00:00,68.3,26.8,30.10,SSW,193,3.0,4.0,21,0.00,,,0.00,Wunderground v.1.15,2013-11-08 05:00:00,
2013-11-07 22:01:00,68.3,26.8,30.10,SSW,192,3.0,4.0,21,0.00,,,0.00,Wunderground v.1.15,2013-11-08 05:01:00,
2013-11-07 22:02:00,68.2,26.7,30.10,SSW,193,3.0,4.0,21,0.00,,,0.00,Wunderground v.1.15,2013-11-08 05:02:00,
2013-11-07 22:03:00,68.2,26.7,30.10,SSW,193,2.0,4.0,21,0.00,,,0.00,Wunderground v.1.15,2013-11-08 05:03:00,
2013-11-07 22:06:00,68.1,26.7,30.10,SSW,198,2.0,4.0,21,0.00,,,0.00,Wunderground v.1.15,2013-11-08 05:06:00,
2013-11-07 22:09:00,68.1,27.8,30.10,SSW,198,3.0,6.0,22,0.00,,,0.00,Wunderground v.1.15,2013-11-08 05:09:00,
2013-11-07 22:13:00,68.1,27.8,30.10,South,190,3.0,7.0,22,0.00,,,0.00,Wunderground v.1.15,2013-11-08 05:13:00,
2013-11-07 22:19:00,68.1,27.8,30.10,SSW,197,3.0,7.0,22,0.00,,,0.00,Wunderground v.1.15,2013-11-08 05:19:00,
2013-11-07 22:25:00,68.1,27.8,30.10,SSW,199,4.0,6.0,22,0.00,,,0.00,Wunderground v.1.15,2013-11-08 05:25:00,
2013-11-07 22:30:00,68.1,27.8,30.10,SSW,192,4.0,4.0,22,0.00,,,0.00,Wunderground v.1.15,2013-11-08 05:30:00,
2013-11-07 22:36:00,68.0,27.7,30.10,SSW,194,3.0,5.0,22,0.00,,,0.00,Wunderground v.1.15,2013-11-08 05:36:00,
2013-11-07 22:42:00,68.0,27.7,30.10,South,188,4.0,7.0,22,0.00,,,0.00,Wunderground v.1.15,2013-11-08 05:42:00,
2013-11-07 22:48:00,67.9,27.6,30.10,South,187,4.0,7.0,22,0.00,,,0.00,Wunderground v.1.15,2013-11-08 05:48:00,
2013-11-07 22:53:00,67.9,27.6,30.10,SSE,163,3.0,5.0,22,0.00,,,0.00,Wunderground v.1.15,2013-11-08 05:53:00,
2013-11-07 22:58:00,67.9,27.6,30.10,SSE,163,3.0,5.0,22,0.00,,,0.00,Wunderground v.1.15,2013-11-08 05:58:00,
2013-11-07 23:03:00,67.8,27.5,30.10,SSW,200,3.0,5.0,22,0.00,,,0.00,Wunderground v.1.15,2013-11-08 06:03:00,
2013-11-07 23:08:00,67.7,28.5,30.10,SSW,195,2.0,5.0,23,0.00,,,0.00,Wunderground v.1.15,2013-11-08 06:08:00,
2013-11-07 23:14:00,67.5,28.4,30.10,South,173,2.0,5.0,23,0.00,,,0.00,Wunderground v.1.15,2013-11-08 06:14:00,
2013-11-07 23:19:00,67.4,28.3,30.10,South,191,2.0,5.0,23,0.00,,,0.00,Wunderground v.1.15,2013-11-08 06:19:00,
2013-11-07 23:25:00,67.2,28.1,30.10,SSW,198,2.0,5.0,23,0.00,,,0.00,Wunderground v.1.15,2013-11-08 06:25:00,
2013-11-07 23:31:00,66.9,28.9,30.10,SSW,199,4.0,4.0,24,0.00,,,0.00,Wunderground v.1.15,2013-11-08 06:31:00,
2013-11-07 23:37:00,66.6,28.6,30.10,SSW,198,4.0,5.0,24,0.00,,,0.00,Wunderground v.1.15,2013-11-08 06:37:00,
2013-11-07 23:43:00,66.4,28.5,30.10,SSW,200,4.0,5.0,24,0.00,,,0.00,Wunderground v.1.15,2013-11-08 06:43:00,
2013-11-07 23:49:00,66.3,29.4,30.10,SSW,196,3.0,6.0,25,0.00,,,0.00,Wunderground v.1.15,2013-11-08 06:49:00,
2013-11-07 23:54:00,66.1,29.2,30.10,SSW,198,3.0,5.0,25,0.00,,,0.00,Wunderground v.1.15,2013-11-08 06:54:00,